| time (UTC) | temp F | wind direction | speed MPH | gust MPH | rain 1hr in | rain 24hr in | rain mn in | humidity % | barometer mb |
| 20260504173045 | 65 | 286 | 4.0 | 9.0 | 0.00 | 0.00 | 0.00 | 58 | 1013.9 |
| 20260504172541 | 65 | 210 | 10.0 | 13.0 | 0.00 | 0.00 | 0.00 | 54 | 1014.1 |
| 20260504172038 | 65 | 264 | 5.0 | 8.0 | 0.00 | 0.00 | 0.00 | 58 | 1014.3 |
| 20260504171535 | 65 | 205 | 9.0 | 15.0 | 0.00 | 0.00 | 0.00 | 55 | 1014.2 |
| 20260504171032 | 64 | 256 | 7.0 | 16.0 | 0.00 | 0.00 | 0.00 | 56 | 1014.2 |
| 20260504170527 | 64 | 207 | 8.0 | 18.0 | 0.00 | 0.00 | 0.00 | 58 | 1014.5 |
| 20260504150912 | 62 | 221 | 6.0 | 11.0 | 0.00 | 0.00 | 0.00 | 52 | 1015.6 |
| 20260504150408 | 63 | 270 | 3.0 | 7.0 | 0.00 | 0.00 | 0.00 | 51 | 1015.6 |
| 20260504140835 | 61 | 221 | 3.0 | 11.0 | 0.00 | 0.00 | 0.00 | 48 | 1015.6 |
| 20260504140330 | 61 | 277 | 4.0 | 7.0 | 0.00 | 0.00 | 0.00 | 53 | 1015.4 |
| 20260504130759 | 58 | 256 | 2.0 | 6.0 | 0.00 | 0.00 | 0.00 | 54 | 1015.5 |
| 20260504130255 | 58 | 258 | 3.0 | 3.0 | 0.00 | 0.00 | 0.00 | 54 | 1015.6 |
| 20260504120219 | 51 | 219 | 3.0 | 7.0 | 0.00 | 0.00 | 0.00 | 63 | 1016.0 |
| 20260504110646 | 49 | 165 | 2.0 | 4.0 | 0.00 | 0.00 | 0.00 | 69 | 1016.1 |
| 20260504110143 | 49 | 218 | 5.0 | 8.0 | 0.00 | 0.00 | 0.00 | 68 | 1015.9 |
| 20260504100609 | 48 | 213 | 2.0 | 4.0 | 0.00 | 0.00 | 0.00 | 69 | 1016.1 |
| 20260504100107 | 48 | 226 | 1.0 | 2.0 | 0.00 | 0.00 | 0.00 | 69 | 1016.2 |
| 20260504082002 | 48 | 233 | 0.0 | 0.0 | 0.00 | 0.00 | 0.00 | 62 | 1017.0 |
| 20260504081500 | 48 | 237 | 1.0 | 3.0 | 0.00 | 0.00 | 0.00 | 62 | 1016.9 |
| 20260504080955 | 48 | 143 | 1.0 | 1.0 | 0.00 | 0.00 | 0.00 | 63 | 1016.8 |
| 20260504080452 | 48 | 177 | 2.0 | 2.0 | 0.00 | 0.00 | 0.00 | 61 | 1016.9 |
| 20260504050305 | 47 | 228 | 2.0 | 3.0 | 0.00 | 0.00 | 0.00 | 57 | 1017.2 |
| 20260504045803 | 47 | 229 | 3.0 | 4.0 | 0.00 | 0.00 | 0.00 | 55 | 1017.4 |
| 20260504045304 | 48 | 248 | 0.0 | 3.0 | 0.00 | 0.00 | 0.00 | 56 | 1017.3 |
| 20260504044800 | 48 | 216 | 2.0 | 6.0 | 0.00 | 0.00 | 0.00 | 54 | 1017.4 |
| 20260504044257 | 47 | 237 | 1.0 | 2.0 | 0.00 | 0.00 | 0.00 | 57 | 1017.4 |
| 20260504043754 | 47 | 229 | 0.0 | 0.0 | 0.00 | 0.00 | 0.00 | 57 | 1017.4 |
| 20260504043251 | 47 | 235 | 0.0 | 1.0 | 0.00 | 0.00 | 0.00 | 61 | 1017.5 |
| 20260504042749 | 47 | 236 | 0.0 | 2.0 | 0.00 | 0.00 | 0.00 | 61 | 1017.3 |
| 20260504042245 | 47 | 241 | 1.0 | 1.0 | 0.00 | 0.00 | 0.00 | 59 | 1017.1 |
| 20260504041741 | 47 | 242 | 0.0 | 3.0 | 0.00 | 0.00 | 0.00 | 61 | 1017.3 |
| 20260504041237 | 47 | 218 | 1.0 | 3.0 | 0.00 | 0.00 | 0.00 | 57 | 1017.2 |
| 20260504040733 | 47 | 235 | 1.0 | 2.0 | 0.00 | 0.00 | 0.00 | 56 | 1017.4 |
| 20260504040231 | 48 | 241 | 2.0 | 3.0 | 0.00 | 0.00 | 0.00 | 56 | 1017.3 |
| 20260504035727 | 47 | 232 | 2.0 | 4.0 | 0.00 | 0.00 | 0.00 | 56 | 1017.4 |
| 20260504035225 | 47 | 218 | 4.0 | 4.0 | 0.00 | 0.00 | 0.00 | 55 | 1017.5 |
| 20260504034722 | 47 | 233 | 2.0 | 3.0 | 0.00 | 0.00 | 0.00 | 57 | 1017.4 |
| 20260504034219 | 47 | 237 | 1.0 | 4.0 | 0.00 | 0.00 | 0.00 | 59 | 1017.3 |
| 20260504033717 | 46 | 238 | 0.0 | 2.0 | 0.00 | 0.00 | 0.00 | 61 | 1017.5 |
| 20260504033214 | 46 | 251 | 0.0 | 1.0 | 0.00 | 0.00 | 0.00 | 62 | 1017.6 |
| 20260504032711 | 47 | 234 | 0.0 | 1.0 | 0.00 | 0.00 | 0.00 | 59 | 1017.5 |
| 20260504032208 | 46 | 227 | 1.0 | 1.0 | 0.00 | 0.00 | 0.00 | 57 | 1017.4 |
| 20260504031705 | 46 | 231 | 0.0 | 0.0 | 0.00 | 0.00 | 0.00 | 58 | 1017.5 |
| 20260504031201 | 46 | 245 | 0.0 | 0.0 | 0.00 | 0.00 | 0.00 | 59 | 1017.6 |
| 20260504030657 | 46 | 245 | 0.0 | 1.0 | 0.00 | 0.00 | 0.00 | 61 | 1017.5 |
| 20260504030155 | 46 | 245 | 0.0 | 0.0 | 0.00 | 0.00 | 0.00 | 59 | 1017.5 |
| 20260504025651 | 46 | 248 | 0.0 | 1.0 | 0.00 | 0.00 | 0.00 | 59 | 1017.6 |
| 20260504025148 | 45 | 228 | 0.0 | 0.0 | 0.00 | 0.00 | 0.00 | 57 | 1017.7 |
| 20260504024645 | 44 | 229 | 0.0 | 1.0 | 0.00 | 0.00 | 0.00 | 60 | 1017.5 |
| 20260504024141 | 44 | 228 | 0.0 | 0.0 | 0.00 | 0.00 | 0.00 | 63 | 1017.5 |
| 20260504023639 | 44 | 230 | 1.0 | 1.0 | 0.00 | 0.00 | 0.00 | 62 | 1017.7 |
| 20260504023135 | 44 | 233 | 1.0 | 1.0 | 0.00 | 0.00 | 0.00 | 63 | 1017.6 |
| 20260504022631 | 44 | 237 | 0.0 | 0.0 | 0.00 | 0.00 | 0.00 | 65 | 1017.5 |
| 20260504022127 | 45 | 237 | 0.0 | 0.0 | 0.00 | 0.00 | 0.00 | 64 | 1017.6 |
| 20260504021625 | 46 | 237 | 0.0 | 0.0 | 0.00 | 0.00 | 0.00 | 58 | 1017.5 |
| 20260504021121 | 46 | 236 | 0.0 | 0.0 | 0.00 | 0.00 | 0.00 | 60 | 1017.5 |
| 20260504020619 | 47 | 236 | 0.0 | 0.0 | 0.00 | 0.00 | 0.00 | 56 | 1017.8 |
| 20260504020115 | 47 | 236 | 0.0 | 0.0 | 0.00 | 0.00 | 0.00 | 53 | 1017.5 |
| 20260504015611 | 47 | 234 | 0.0 | 1.0 | 0.00 | 0.00 | 0.00 | 53 | 1017.6 |
| 20260504015107 | 46 | 277 | 0.0 | 0.0 | 0.00 | 0.00 | 0.00 | 54 | 1017.6 |
| 20260504014604 | 46 | 277 | 0.0 | 0.0 | 0.00 | 0.00 | 0.00 | 55 | 1017.4 |
| 20260504014101 | 46 | 277 | 0.0 | 0.0 | 0.00 | 0.00 | 0.00 | 56 | 1017.6 |
| 20260504013558 | 46 | 277 | 0.0 | 0.0 | 0.00 | 0.00 | 0.00 | 53 | 1017.5 |
| 20260504013055 | 47 | 277 | 0.0 | 0.0 | 0.00 | 0.00 | 0.00 | 56 | 1017.5 |
| 20260504012553 | 47 | 277 | 0.0 | 0.0 | 0.00 | 0.00 | 0.00 | 52 | 1017.6 |
| 20260504012051 | 47 | 277 | 0.0 | 0.0 | 0.00 | 0.00 | 0.00 | 52 | 1017.6 |
| 20260504011547 | 47 | 277 | 0.0 | 0.0 | 0.00 | 0.00 | 0.00 | 57 | 1017.5 |
| 20260504011043 | 47 | 277 | 0.0 | 0.0 | 0.00 | 0.00 | 0.00 | 53 | 1017.5 |
| 20260504010539 | 46 | 277 | 0.0 | 0.0 | 0.00 | 0.00 | 0.00 | 54 | 1017.4 |
| 20260504010035 | 47 | 277 | 0.0 | 0.0 | 0.00 | 0.00 | 0.00 | 59 | 1017.3 |
| 20260504005532 | 47 | 277 | 0.0 | 0.0 | 0.00 | 0.00 | 0.00 | 56 | 1017.4 |
| 20260504005030 | 47 | 277 | 0.0 | 0.0 | 0.00 | 0.00 | 0.00 | 54 | 1017.2 |
| 20260504004527 | 48 | 277 | 0.0 | 0.0 | 0.00 | 0.00 | 0.00 | 56 | 1017.2 |
| 20260504004024 | 48 | 277 | 0.0 | 0.0 | 0.00 | 0.00 | 0.00 | 49 | 1017.1 |
| 20260504003520 | 48 | 277 | 0.0 | 0.0 | 0.00 | 0.00 | 0.00 | 50 | 1017.1 |
| 20260504003017 | 49 | 277 | 0.0 | 0.0 | 0.00 | 0.00 | 0.00 | 50 | 1017.2 |
| 20260504002514 | 50 | 277 | 0.0 | 0.0 | 0.00 | 0.00 | 0.00 | 51 | 1017.2 |
| 20260504002011 | 51 | 277 | 0.0 | 0.0 | 0.00 | 0.00 | 0.00 | 45 | 1017.2 |
| 20260504001509 | 51 | 277 | 0.0 | 0.0 | 0.00 | 0.00 | 0.00 | 43 | 1016.9 |
| 20260504001005 | 51 | 279 | 0.0 | 1.0 | 0.00 | 0.00 | 0.00 | 43 | 1017.2 |
| 20260504000502 | 52 | 292 | 2.0 | 2.0 | 0.00 | 0.00 | 0.00 | 41 | 1017.2 |
| 20260503235959 | 52 | 301 | 1.0 | 3.0 | 0.00 | 0.00 | 0.00 | 41 | 1017.2 |
| 20260503235457 | 52 | 253 | 0.0 | 3.0 | 0.00 | 0.00 | 0.00 | 42 | 1017.3 |
| 20260503234954 | 53 | 273 | 0.0 | 1.0 | 0.00 | 0.00 | 0.00 | 42 | 1017.2 |
| 20260503234452 | 53 | 267 | 2.0 | 4.0 | 0.00 | 0.00 | 0.00 | 41 | 1017.1 |
| 20260503233950 | 53 | 260 | 1.0 | 6.0 | 0.00 | 0.00 | 0.00 | 39 | 1017.3 |
| 20260503233446 | 53 | 271 | 2.0 | 3.0 | 0.00 | 0.00 | 0.00 | 43 | 1017.1 |
| 20260503232942 | 54 | 270 | 5.0 | 7.0 | 0.00 | 0.00 | 0.00 | 38 | 1017.2 |
| 20260503232439 | 54 | 301 | 1.0 | 7.0 | 0.00 | 0.00 | 0.00 | 39 | 1017.2 |
| 20260503231937 | 54 | 271 | 1.0 | 3.0 | 0.00 | 0.00 | 0.00 | 39 | 1017.2 |
| 20260503231434 | 55 | 304 | 3.0 | 3.0 | 0.00 | 0.00 | 0.00 | 42 | 1017.5 |
| 20260503230931 | 55 | 288 | 4.0 | 8.0 | 0.00 | 0.00 | 0.00 | 39 | 1017.4 |
| 20260503230427 | 56 | 259 | 5.0 | 6.0 | 0.00 | 0.00 | 0.00 | 36 | 1017.4 |
| 20260503225925 | 56 | 326 | 4.0 | 7.0 | 0.00 | 0.00 | 0.00 | 36 | 1017.4 |
| 20260503225422 | 56 | 295 | 4.0 | 8.0 | 0.00 | 0.00 | 0.00 | 36 | 1017.3 |
| 20260503224917 | 56 | 339 | 3.0 | 6.0 | 0.00 | 0.00 | 0.00 | 35 | 1017.4 |
| 20260503224414 | 56 | 307 | 4.0 | 7.0 | 0.00 | 0.00 | 0.00 | 37 | 1017.4 |
| 20260503223912 | 56 | 295 | 3.0 | 10.0 | 0.00 | 0.00 | 0.00 | 37 | 1017.3 |
| 20260503223410 | 56 | 275 | 3.0 | 10.0 | 0.00 | 0.00 | 0.00 | 43 | 1017.5 |
| 20260503222905 | 56 | 225 | 4.0 | 9.0 | 0.00 | 0.00 | 0.00 | 37 | 1017.5 |
| 20260503222404 | 56 | 307 | 7.0 | 10.0 | 0.00 | 0.00 | 0.00 | 39 | 1017.4 |
| 20260503221902 | 56 | 243 | 5.0 | 7.0 | 0.00 | 0.00 | 0.00 | 36 | 1017.4 |
| 20260503221400 | 56 | 278 | 6.0 | 14.0 | 0.00 | 0.00 | 0.00 | 36 | 1017.2 |
| 20260503220856 | 57 | 281 | 7.0 | 9.0 | 0.00 | 0.00 | 0.00 | 37 | 1017.4 |
| 20260503220353 | 57 | 264 | 2.0 | 4.0 | 0.00 | 0.00 | 0.00 | 41 | 1017.4 |
| 20260503215849 | 56 | 318 | 5.0 | 7.0 | 0.00 | 0.00 | 0.00 | 41 | 1017.3 |
| 20260503215347 | 57 | 283 | 4.0 | 9.0 | 0.00 | 0.00 | 0.00 | 37 | 1017.4 |
| 20260503214844 | 57 | 258 | 3.0 | 6.0 | 0.00 | 0.00 | 0.00 | 37 | 1017.5 |
| 20260503214341 | 56 | 294 | 4.0 | 8.0 | 0.00 | 0.00 | 0.00 | 34 | 1017.4 |
| 20260503213839 | 57 | 342 | 6.0 | 9.0 | 0.00 | 0.00 | 0.00 | 38 | 1017.6 |
| 20260503213336 | 56 | 304 | 6.0 | 9.0 | 0.00 | 0.00 | 0.00 | 34 | 1017.4 |
| 20260503212833 | 56 | 258 | 5.0 | 10.0 | 0.00 | 0.00 | 0.00 | 39 | 1017.5 |
| 20260503212331 | 56 | 335 | 6.0 | 13.0 | 0.00 | 0.00 | 0.00 | 35 | 1017.4 |
| 20260503211828 | 58 | 240 | 3.0 | 9.0 | 0.00 | 0.00 | 0.00 | 39 | 1017.5 |
| 20260503211325 | 57 | 331 | 2.0 | 7.0 | 0.00 | 0.00 | 0.00 | 37 | 1017.5 |
| 20260503210825 | 56 | 305 | 3.0 | 8.0 | 0.00 | 0.00 | 0.00 | 42 | 1017.5 |
| 20260503210323 | 56 | 113 | 2.0 | 7.0 | 0.00 | 0.00 | 0.00 | 38 | 1017.4 |
| 20260503205817 | 56 | 317 | 5.0 | 8.0 | 0.00 | 0.00 | 0.00 | 38 | 1017.6 |
| 20260503205314 | 56 | 288 | 6.0 | 10.0 | 0.00 | 0.00 | 0.00 | 37 | 1017.8 |
| 20260503204811 | 56 | 259 | 4.0 | 13.0 | 0.00 | 0.00 | 0.00 | 37 | 1017.7 |
| 20260503204309 | 56 | 213 | 4.0 | 7.0 | 0.00 | 0.00 | 0.00 | 35 | 1017.7 |
| 20260503203805 | 55 | 277 | 7.0 | 11.0 | 0.00 | 0.00 | 0.00 | 37 | 1017.8 |
| 20260503203303 | 56 | 267 | 5.0 | 11.0 | 0.00 | 0.00 | 0.00 | 45 | 1017.9 |
| 20260503202800 | 57 | 235 | 3.0 | 9.0 | 0.00 | 0.00 | 0.00 | 39 | 1017.9 |
| 20260503202258 | 55 | 220 | 3.0 | 10.0 | 0.00 | 0.00 | 0.00 | 40 | 1017.9 |
| 20260503201755 | 54 | 310 | 3.0 | 8.0 | 0.00 | 0.00 | 0.00 | 38 | 1018.1 |
| 20260503201252 | 55 | 223 | 3.0 | 6.0 | 0.00 | 0.00 | 0.00 | 36 | 1018.1 |
| 20260503200749 | 57 | 230 | 1.0 | 4.0 | 0.00 | 0.00 | 0.00 | 39 | 1018.3 |
| 20260503200245 | 56 | 228 | 3.0 | 4.0 | 0.00 | 0.00 | 0.00 | 37 | 1018.2 |
| 20260503195743 | 55 | 318 | 3.0 | 11.0 | 0.00 | 0.00 | 0.00 | 36 | 1018.3 |
| 20260503195239 | 56 | 282 | 10.0 | 13.0 | 0.00 | 0.00 | 0.00 | 38 | 1018.6 |
| 20260503194737 | 55 | 264 | 2.0 | 3.0 | 0.00 | 0.00 | 0.00 | 41 | 1018.4 |
| 20260503194232 | 56 | 261 | 7.0 | 11.0 | 0.00 | 0.00 | 0.00 | 36 | 1018.9 |
| 20260503193729 | 56 | 277 | 6.0 | 13.0 | 0.00 | 0.00 | 0.00 | 39 | 1018.9 |
| 20260503193225 | 56 | 331 | 5.0 | 8.0 | 0.00 | 0.00 | 0.00 | 42 | 1018.8 |
| 20260503192721 | 53 | 209 | 3.0 | 8.0 | 0.00 | 0.00 | 0.00 | 41 | 1018.6 |
| 20260503192216 | 53 | 315 | 6.0 | 10.0 | 0.00 | 0.00 | 0.00 | 39 | 1019.0 |
| 20260503191713 | 55 | 357 | 4.0 | 7.0 | 0.00 | 0.00 | 0.00 | 41 | 1019.1 |
| 20260503191210 | 55 | 358 | 3.0 | 7.0 | 0.00 | 0.00 | 0.00 | 43 | 1018.9 |
| 20260503190707 | 54 | 230 | 4.0 | 13.0 | 0.00 | 0.00 | 0.00 | 45 | 1019.0 |
| 20260503190204 | 53 | 42 | 6.0 | 7.0 | 0.00 | 0.00 | 0.00 | 42 | 1019.2 |
| 20260503185701 | 53 | 244 | 6.0 | 9.0 | 0.00 | 0.00 | 0.00 | 40 | 1019.1 |
| 20260503185156 | 55 | 283 | 4.0 | 10.0 | 0.00 | 0.00 | 0.00 | 39 | 1019.2 |
| 20260503184651 | 54 | 304 | 9.0 | 15.0 | 0.00 | 0.00 | 0.00 | 43 | 1019.3 |
| 20260503184148 | 52 | 333 | 6.0 | 9.0 | 0.00 | 0.00 | 0.00 | 41 | 1019.4 |
| 20260503183644 | 53 | 300 | 1.0 | 4.0 | 0.00 | 0.00 | 0.00 | 44 | 1019.5 |
| 20260503183142 | 53 | 347 | 4.0 | 9.0 | 0.00 | 0.00 | 0.00 | 41 | 1019.7 |
| 20260503182640 | 53 | 259 | 6.0 | 9.0 | 0.00 | 0.00 | 0.00 | 40 | 1019.6 |
| 20260503182139 | 51 | 321 | 3.0 | 8.0 | 0.00 | 0.00 | 0.00 | 44 | 1019.5 |
| 20260503181635 | 52 | 275 | 8.0 | 11.0 | 0.00 | 0.00 | 0.00 | 42 | 1019.5 |
| 20260503181131 | 53 | 249 | 4.0 | 6.0 | 0.00 | 0.00 | 0.00 | 52 | 1019.6 |
| 20260503180628 | 53 | 200 | 4.0 | 7.0 | 0.00 | 0.00 | 0.00 | 47 | 1019.7 |
| 20260503180126 | 53 | 211 | 3.0 | 7.0 | 0.00 | 0.00 | 0.00 | 48 | 1019.6 |
| 20260503175623 | 53 | 294 | 9.0 | 14.0 | 0.00 | 0.00 | 0.00 | 39 | 1019.9 |
| 20260503175120 | 52 | 271 | 3.0 | 10.0 | 0.00 | 0.00 | 0.00 | 54 | 1019.7 |
| 20260503174616 | 52 | 264 | 7.0 | 10.0 | 0.00 | 0.00 | 0.00 | 45 | 1019.7 |
| 20260503174114 | 52 | 329 | 6.0 | 10.0 | 0.00 | 0.00 | 0.00 | 49 | 1019.9 |
| 20260503173608 | 52 | 320 | 8.0 | 11.0 | 0.00 | 0.00 | 0.00 | 41 | 1020.0 |